Hourly Data Report for September 26, 2017

All times are specified in Local Standard Time (LST). Add 1 hour to adjust for Daylight Saving Time where and when it is observed.

KOUCHIBOUGUAC CS
NEW BRUNSWICK

46°47'00.000" N
65°01'00.000" W
21.00 m
8102328
71670
AKC

Download Data

Hourly Data (September 2017)
Hourly Data Report for September 26, 2017
Temp Definition
°C
Dew Point Temp Definition
°C
Rel Hum Definition
%
Wind Dir Definition
10's deg

Wind Spd Definition
km/h
Visibility Definition
km
Stn Press Definition
kPa
Hmdx Definition


Wind Chill Definition


Weather Definition


TIME
00:00 21.9 18.3 80 21 9   101.04 28   LegendNANA
01:00 21.7 18.4 81 21 10   101.04 28   LegendNANA
02:00 21.6 18.5 83 22 9   101.00 28   LegendNANA
03:00 21.1 18.5 85 22 7   100.96 27   LegendNANA
04:00 20.9 18.6 87 22 8   100.96 27   LegendNANA
05:00 20.8 18.6 87 22 7   100.97 27   LegendNANA
06:00 20.4 18.5 89 22 9   100.99 27   LegendNANA
07:00 20.1 18.4 90 22 9   101.03 26   LegendNANA
08:00 22.1 19.0 83 23 7   101.01 29   LegendNANA
09:00 23.9 19.4 76 24 10   101.00 31   LegendNANA
10:00 27.0 19.4 63 27 9   100.99 34   LegendNANA
11:00 28.9 19.0 55 30 11   100.97 36   LegendNANA
12:00 30.1 18.8 51 26 12   100.96 37   LegendNANA
13:00 31.1 17.7 45 31 13   100.92 37   LegendNANA
14:00 31.0 18.6 48 33 10   100.96 37   LegendNANA
15:00 18.6 12.6 68 4 17   101.19     LegendNANA
16:00 16.4 12.1 76 5 12   101.30     LegendNANA
17:00 16.1 11.0 72 4 13   101.40     LegendNANA
18:00 14.9 10.2 74 5 8   101.49     LegendNANA
19:00 14.0 10.4 79 5 7   101.56     LegendNANA
20:00 14.2 11.6 84 5 6   101.63     LegendNANA
21:00 14.3 11.3 82 5 8   101.67     LegendNANA
22:00 14.0 10.4 79 5 7   101.68     LegendNANA
23:00 14.0 10.4 79 6 7   101.67     LegendNANA

Notes on Data Quality.

Legend

  • E = Estimated
  • M = Missing
  • NA = Not Available
  • ‡ = Partner data that is not subject to review by the National Climate Archives
Date modified: